This demonstration page uses our WeatherBlox Daily Observations layout. Learn more.

41.55636, -103.73856

Hourly Observations for March 30, 2019

Temp ( °F °C ) Dew Point ( °F °C ) Humidity (%) Winds ( mph kmh ) Pressure ( in mb ) Visibility ( mi km ) Precip ( " mm )
12:53 am 00:53 Cloudy 34 1 N/A N/A WNW 6 9 30.3 1026 10 16.09344 0 0
1:53 am 01:53 Cloudy 34 1 N/A N/A WNW 8 13 30.3 1026 10 16.09344 0 0
2:53 am 02:53 Cloudy 34 1 N/A N/A WNW 10 17 30.3 1026 10 16.09344 0 0
3:53 am 03:53 Mostly Cloudy 30 -1 N/A N/A NW 8 13 30.33 1027 10 16.09344 0 0
4:53 am 04:53 Cloudy 30 -1 N/A N/A W 6 9 30.36 1028 10 16.09344 0 0
5:53 am 05:53 Cloudy 30 -1 N/A N/A WNW 5 7 30.36 1028 10 16.09344 0 0
6:40 am 06:40 Cloudy 30 -1 N/A N/A WNW 6 9 30.48 1032 10 16.09344 0 0
6:53 am 06:53 Cloudy 30 -1 N/A N/A WNW 5 7 30.39 1029 10 16.09344 0 0
7:07 am 07:07 Cloudy 30 -1 N/A N/A W 5 7 30.48 1032 10 16.09344 0 0
7:53 am 07:53 Cloudy 32 0 N/A N/A NW 7 11 30.39 1029 10 16.09344 0 0
8:53 am 08:53 Mostly Cloudy 34 1 N/A N/A WNW 9 15 30.42 1030 9 14.484096 0.001 0.001
9:53 am 09:53 Mostly Cloudy 37 3 N/A N/A NNW 15 24 30.42 1030 10 16.09344 0 0
10:08 am 10:08 Cloudy 37 3 N/A N/A N 14 22 30.45 1031 10 16.09344 0 0
10:53 am 10:53 Cloudy 39 4 N/A N/A undefined N/A 30.42 1030 10 16.09344 0 0
11:53 am 11:53 Mostly Cloudy 43 6 N/A N/A NNW 16 26 30.39 1029 10 16.09344 0 0
12:53 pm 12:53 Mostly Cloudy 43 6 N/A N/A undefined N/A 30.39 1029 10 16.09344 0 0
1:53 pm 13:53 Mostly Cloudy 45 7 N/A N/A NW 20 31 30.36 1028 10 16.09344 0 0
2:53 pm 14:53 Mostly Cloudy 45 7 N/A N/A NNW 17 28 30.33 1027 10 16.09344 0 0
3:53 pm 15:53 Cloudy 45 7 N/A N/A N 15 24 30.33 1027 10 16.09344 0 0
4:53 pm 16:53 Cloudy 45 7 N/A N/A NNW 16 26 30.33 1027 10 16.09344 0 0
5:53 pm 17:53 Mostly Cloudy 43 6 N/A N/A NW 8 13 30.33 1027 10 16.09344 0 0
6:53 pm 18:53 Sunny 43 6 N/A N/A NW 7 11 30.33 1027 10 16.09344 0 0
7:53 pm 19:53 Clear 36 2 N/A N/A Calm 30.36 1028 10 16.09344 0 0
8:53 pm 20:53 Clear 32 0 N/A N/A ESE 6 9 30.39 1029 10 16.09344 0 0
9:53 pm 21:53 Clear 30 -1 N/A N/A E 8 13 30.39 1029 10 16.09344 0 0
10:53 pm 22:53 Clear 28 -2 N/A N/A E 7 11 30.39 1029 10 16.09344 0 0
11:53 pm 23:53 Clear 28 -2 N/A N/A Calm 30.39 1029 10 16.09344 0 0

Powered by AerisWeather